IRIDIUM 33 DEB, 34508

Orbit data source: Space-Track

IRIDIUM 33 DEB, 34508 is space debris in LEO originally from a launch on Sun, 14 Sep 1997 UTC launched from the Tyuratam Missile And Space Complex (TTMTR). The debris from Iridium 33, an American commercial communications satellite, has been tracked extensively since its accidental collision with the defunct Russian satellite Cosmos 2251 in 2009. This event, occurring at high speed in low Earth orbit (LEO), generated thousands of pieces of space debris, significantly increasing the risk of further collisions. The Iridium 33 debris cloud has impacted space traffic management and orbital debris mitigation strategies, making it a subject of ongoing study in space situational awareness.

Loading next visibility...
Identifier
34508, 1997-051GZ
Orbit
LEO
Country
Flag of USUS
Related business
Manufacturer
Unknown
Mission
Spacecraft
Bus & Motor
Unknown
Mass
Unknown
Launch date (UTC)
1997-09-14 (28 years ago)
Launch vehicle
Unknown
Launch site
Tyuratam Missile And Space Complex (TTMTR)
Object type
Payload
Rocket body
Debris
Shape & HBR
Unknown shape, 0.1 m
Radar Cross Section
Small (<0.1 m²)

Expand to show TLE details & history
Last TLE update: 9 hours ago

TLE from 9 hours ago
0 IRIDIUM 33 DEB
1 34508U 97051GZ  26063.46718744  .00005346  00000-0  16857-2 0  9997
2 34508  86.3655  67.9524 0061748 265.3100  94.1045 14.39088207884848
Epoch: 2026-03-04T11:12Z
TLE epoch observation values (Epoch: 2026-03-04T11:12:44.994Z)
Latitude
-0.00001°
Longitude
97.53345°
Altitude
767.997 km
Speed
7.468 km/s
True Right ascension
04h 31m 48s
True Declination
0° 00' 00"
Sunlit
Object was in daylight at epoch
Visualization orbit readout
Latitude
Unknown
Longitude
Unknown
Altitude
Unknown
Speed
Unknown
Apparent Right ascension
Unknown
Apparent Declination
Unknown
Sunlit
N/A
Visualization observer readout
Local Sidereal Time
00:29:47
Azimuth
Unknown
Elevation
Unknown
Doppler factor
Unknown
Orbital elements
Apogee altitude
802.538 km
Perigee altitude
714.404 km
Semi-major axis
7,136.608 km
Eccentricity
0.00617
Inclination
86.3655°
RAAN
67.9524°
Arg. of periapsis
265.31°
True anomaly
94.80986°
Mean anomaly
94.1045°
Eccentric anomaly
94.45722°
Mean motion
3.60002 °/min
Orbital period
100 mins
BSTAR
0.0016857
Loading maneuver chart data...
Computing Atmospheric mass density...

Documentation

Showing up to 5 results
|